Location: Newark
(41.8083°N, 72.2500°W)
Time: 01:50:23
(UTC+00:00)

Vanguard 1 Rocket - Pass Details

Date: 08 December 2021
Orbit: 651 x 4224 km, 34.3° (Epoch: 15 January)

Event Time Altitude Azimuth Distance (km) Brightness Sun altitude
Exits shadow 06:13:26 24° 98° (E) 3,907 10.6 -62.9°
Drops below altitude 10° 06:19:38 10° 88° (E) 5,663 11.6 -61.9°
Sets 06:25:30 0° 84° (E) 7,250 12.4 -61.0°
